Location: Home
(42.5358°N, 72.7383°W)
Time: 16:09:09
(UTC-05:00)

N. Korean satellite - Pass Details

Date: 23 October 2021
Orbit: 446 x 495 km, 97.3° (Epoch: 07 December)

Event Time Altitude Azimuth Distance (km) Brightness Sun altitude
Rises 05:13:12 0° 29° (NNE) 2,593 10.7 -22.9°
Reaches altitude 10° 05:15:51 10° 49° (NE) 1,700 10.0 -22.4°
Maximum altitude 05:18:21 17° 93° (E) 1,293 9.6 -21.9°
Drops below altitude 10° 05:20:50 10° 136° (SE) 1,679 9.8 -21.4°
Sets 05:23:25 0° 157° (SSE) 2,545 10.5 -21.0°
